Regional Weather Roundup
Issued by NWS Cleveland, OH

Home | Current Version | Previous Version | Graphics & Text | Print | Product List | Glossary On
Versions: 1 2 3 4 5 6 7 8 9 10 11 12 13 14 15 16 17 18 19 20 21 22 23 24 25 26 27 28 29 30 31 32 33 34 35 36 37 38 39 40 41 42 43 44 45 46 47 48 49 50
000
ASUS41 KCLE 161302
RWRCLE
OHIO REGIONAL WEATHER ROUNDUP
NATIONAL WEATHER SERVICE CLEVELAND, OH
800 AM EST MON JAN 16 2017

NOTE: "FAIR" INDICATES FEW OR NO CLOUDS BELOW 12,000 FEET WITH NO
SIGNIFICANT WEATHER AND/OR OBSTRUCTIONS TO VISIBILITY.

OHZ001>008-015>018-024>027-034-035-043-044-161400-
   NORTHWEST OHIO

CITY           SKY/WX    TMP DP  RH WIND       PRES   REMARKS
DEFIANCE       CLOUDY    32  26  78 E5        30.31S HAZE    WCI  27
FINDLAY        CLOUDY    32  27  81 E5        30.30S HAZE    WCI  27
TOLEDO EXPRESS CLOUDY    28  26  92 CALM      30.33R FOG
TOLEDO EXEC    CLOUDY    30  27  88 CALM      30.35R FOG
LIMA           CLOUDY    33  31  92 E5        30.29F FOG     WCI  29
$$

OHZ009>014-019>023-028>033-038-089-161400-
   NORTHEAST OHIO

CITY           SKY/WX    TMP DP  RH WIND       PRES   REMARKS
CLE-HOPKINS    CLOUDY    30  23  75 SE5       30.35F WCI  25
CLE-LAKEFRONT  CLOUDY    30  22  72 SE8       30.33F WCI  22
CUY CO. ARPT   CLOUDY    27  25  93 E5        30.34S WCI  21
LORAIN-ELYRIA  CLOUDY    27  22  81 CALM      30.33F HAZE
ASHTABULA      PTCLDY    22  19  89 CALM      30.36
AKRON-CANTON   CLOUDY    30  21  69 E5        30.32S WCI  25
WOOSTER        CLOUDY    28  24  85 SE3       30.32S
MANSFIELD      CLOUDY    31  27  85 SE7       30.29F WCI  24
YOUNGSTOWN     CLOUDY    25  20  81 E6        30.33F WCI  18
$$

OHZ042-051>053-060>062-070>072-077>081-161400-
  SOUTHWEST OHIO

CITY           SKY/WX    TMP DP  RH WIND       PRES   REMARKS
CINC-COVINGTON FOG       39  38  96 E5        30.27F VSB 1/2
CINC-LUNKEN    CLOUDY    40  39  97 NE3       30.31F FOG
HAMILTON       CLOUDY    39  38  96 E3        30.30S FOG
DAYTON         CLOUDY    35  34  96 E5        30.30R FOG
WRIGHT-PAT AFB CLOUDY    36  36 100 E5        30.29S FOG
DAYTON GENERAL CLOUDY    38  36  92 SE8       30.28S FOG
WILMINGTON     LGT RAIN  36  36 100 SE6       30.29S FOG
$$

OHZ036-037-039>041-045>050-054>059-063>069-073>076-082>088-161400-
  CENTRAL AND SOUTHEAST OHIO

CITY           SKY/WX    TMP DP  RH WIND       PRES   REMARKS
COLUMBUS       CLOUDY    37  32  82 SE5       30.31F
OSU AIRPORT    CLOUDY    34  32  92 E5        30.30F FOG     WCI  30
BOLTON FIELD   CLOUDY    36  32  87 CALM      30.31S
RICKENBACK AFB   N/A     34  33  94 CALM      30.31S FOG
NEWARK         CLOUDY    33  28  81 NE5       30.32R WCI  29
MARION         CLOUDY    32  29  88 S5        30.31S FOG     WCI  27
LANCASTER      CLOUDY    37  33  85 SE3       30.32S
ZANESVILLE     CLOUDY    33  29  85 CALM      30.33R
NEW PHILLY     NOT AVBL
$$



USA.gov is the U.S. government's official web portal to all federal, state and local government web resources and services.